Terminal Aerodrome Forecast
Issued by NWS Duluth, MN

Home | Current Version | Previous Version | Text Only | Print | Product List | Glossary On
Versions: 1 2 3 4 5 6 7 8 9 10 11 12 13 14 15 16 17 18 19 20 21 22 23 24 25 26 27 28 29 30
000
FTUS43 KDLH 300840 AAB
TAFDLH
TAF AMD
KDLH 300840Z 3009/3106 23008KT 5SM BR OVC004
      TEMPO 3010/3013 2SM BR OVC004
     FM301400 21011KT P6SM SCT050=

USA.gov is the U.S. government's official web portal to all federal, state and local government web resources and services.